EN

Hourly Weather Altweid

Today, 17 January, Sunday

Time Temperature Precipitation Wind Pressure Humidity
00:00 -1°C° 0.1 mm 1 mps 726 mmHg 87%
01:00 -2°C° 0 mm 0 mps 725 mmHg 89%
02:00 0°C° 0.6 mm 1 mps 724 mmHg 92%
03:00 0°C° 0.6 mm 1 mps 724 mmHg 95%
04:00 0°C° 0.6 mm 1 mps 723 mmHg 97%
05:00 +1°C° 0.5 mm 1 mps 723 mmHg 97%
06:00 -1°C° 0.5 mm 2 mps 723 mmHg 97%
07:00 +1°C° 0 mm 2 mps 723 mmHg 97%
08:00 +1°C° 0.4 mm 2 mps 723 mmHg 98%
09:00 +1°C° 0.4 mm 3 mps 723 mmHg 98%
10:00 +1°C° 0.4 mm 3 mps 723 mmHg 98%
11:00 +1°C° 0.5 mm 3 mps 724 mmHg 98%
12:00 +1°C° 0.5 mm 3 mps 724 mmHg 98%
13:00 +1°C° 0.5 mm 3 mps 724 mmHg 99%
14:00 +2°C° 0.9 mm 2 mps 724 mmHg 99%
15:00 +2°C° 0.9 mm 2 mps 725 mmHg 99%
16:00 +2°C° 0.9 mm 2 mps 725 mmHg 99%
17:00 +3°C° 0.6 mm 1 mps 726 mmHg 99%
18:00 +3°C° 0.6 mm 1 mps 727 mmHg 99%
19:00 +2°C° 0.6 mm 1 mps 727 mmHg 99%
20:00 +2°C° 0.2 mm 1 mps 728 mmHg 99%
21:00 +2°C° 0.2 mm 1 mps 728 mmHg 98%
22:00 +2°C° 0.2 mm 1 mps 729 mmHg 98%
23:00 +2°C° 0.1 mm 1 mps 729 mmHg 97%

Tomorrow, 18 January, Monday

Time Temperature Precipitation Wind Pressure Humidity
00:00 +1°C° 0.1 mm 1 mps 730 mmHg 97%
01:00 +1°C° 0.1 mm 1 mps 730 mmHg 96%
02:00 +1°C° 0.1 mm 1 mps 730 mmHg 96%
03:00 +1°C° 0.1 mm 1 mps 730 mmHg 95%
04:00 0°C° 0.1 mm 1 mps 730 mmHg 95%
05:00 0°C° 0.1 mm 1 mps 730 mmHg 95%
06:00 0°C° 0.1 mm 1 mps 731 mmHg 96%
07:00 -1°C° 0.1 mm 1 mps 731 mmHg 96%
08:00 0°C° 0.1 mm 1 mps 731 mmHg 95%
09:00 +1°C° 0.1 mm 1 mps 731 mmHg 94%
10:00 +1°C° 0.1 mm 1 mps 731 mmHg 93%
11:00 +2°C° 0 mm 1 mps 731 mmHg 93%
12:00 +2°C° 0 mm 1 mps 731 mmHg 93%
13:00 +3°C° 0 mm 1 mps 730 mmHg 93%
14:00 +3°C° 0 mm 1 mps 730 mmHg 94%
15:00 +1°C° 0 mm 0 mps 730 mmHg 94%
16:00 +1°C° 0 mm 0 mps 730 mmHg 95%
17:00 0°C° 0 mm 0 mps 730 mmHg 94%
18:00 0°C° 0 mm 1 mps 730 mmHg 93%
19:00 -1°C° 0 mm 1 mps 731 mmHg 92%
20:00 -1°C° 0 mm 1 mps 730 mmHg 90%
21:00 -1°C° 0 mm 1 mps 730 mmHg 89%
22:00 -2°C° 0 mm 1 mps 730 mmHg 87%
23:00 -1°C° 0 mm 1 mps 730 mmHg 86%

Day after tomorrow, 19 January, Tuesday

Time Temperature Precipitation Wind Pressure Humidity
00:00 -1°C° 0 mm 1 mps 729 mmHg 84%
01:00 -1°C° 0 mm 1 mps 729 mmHg 83%
02:00 -1°C° 0 mm 1 mps 729 mmHg 82%
03:00 -1°C° 0 mm 1 mps 728 mmHg 81%
04:00 -2°C° 0 mm 1 mps 728 mmHg 81%
05:00 -1°C° 0 mm 1 mps 727 mmHg 80%
06:00 -1°C° 0 mm 1 mps 727 mmHg 79%
07:00 -1°C° 0 mm 1 mps 727 mmHg 79%
08:00 +1°C° 0 mm 1 mps 726 mmHg 79%
09:00 +2°C° 0 mm 1 mps 726 mmHg 80%
10:00 +3°C° 0 mm 1 mps 726 mmHg 80%
11:00 +4°C° 0 mm 1 mps 725 mmHg 84%
12:00 +5°C° 0 mm 1 mps 725 mmHg 87%
13:00 +6°C° 0 mm 1 mps 725 mmHg 91%
14:00 +5°C° 0 mm 1 mps 724 mmHg 89%
15:00 +5°C° 0 mm 1 mps 724 mmHg 87%
16:00 +5°C° 0 mm 1 mps 723 mmHg 85%
17:00 +4°C° 0 mm 1 mps 724 mmHg 83%
18:00 +2°C° 0 mm 2 mps 724 mmHg 80%
19:00 +1°C° 0 mm 2 mps 724 mmHg 78%
20:00 +1°C° 0 mm 2 mps 724 mmHg 78%
21:00 -1°C° 0 mm 2 mps 723 mmHg 78%
22:00 -1°C° 0 mm 2 mps 723 mmHg 77%
23:00 -1°C° 0 mm 2 mps 723 mmHg 77%

20 January, Wednesday

Time Temperature Precipitation Wind Pressure Humidity
00:00 -1°C° 0 mm 2 mps 723 mmHg 76%
01:00 -2°C° 0 mm 2 mps 723 mmHg 76%
02:00 -2°C° 0 mm 2 mps 723 mmHg 76%
03:00 -2°C° 0 mm 2 mps 722 mmHg 76%
04:00 -2°C° 0 mm 2 mps 722 mmHg 76%
05:00 -2°C° 0 mm 2 mps 721 mmHg 76%
06:00 -2°C° 0 mm 2 mps 721 mmHg 77%
07:00 -3°C° 0 mm 2 mps 721 mmHg 77%
08:00 -2°C° 0 mm 2 mps 721 mmHg 78%
09:00 -1°C° 0 mm 2 mps 721 mmHg 79%
10:00 +1°C° 0 mm 2 mps 721 mmHg 79%
11:00 +2°C° 0 mm 2 mps 720 mmHg 82%
12:00 +4°C° 0 mm 1 mps 720 mmHg 85%
13:00 +5°C° 0 mm 1 mps 719 mmHg 88%
14:00 +5°C° 0 mm 1 mps 719 mmHg 88%
15:00 +4°C° 0 mm 1 mps 718 mmHg 88%
16:00 +4°C° 0 mm 1 mps 718 mmHg 88%
17:00 +2°C° 0 mm 2 mps 718 mmHg 87%
18:00 +1°C° 0 mm 2 mps 718 mmHg 86%
19:00 -1°C° 0 mm 2 mps 718 mmHg 84%
20:00 -1°C° 0 mm 2 mps 718 mmHg 84%
21:00 -1°C° 0 mm 2 mps 717 mmHg 84%
22:00 -1°C° 0 mm 2 mps 717 mmHg 84%
23:00 -1°C° 0 mm 2 mps 717 mmHg 84%

21 January, Thursday

Time Temperature Precipitation Wind Pressure Humidity
00:00 -1°C° 0 mm 2 mps 717 mmHg 84%
01:00 -1°C° 0 mm 2 mps 716 mmHg 84%
02:00 -1°C° 0 mm 2 mps 716 mmHg 84%
03:00 +1°C° 0 mm 2 mps 716 mmHg 84%
04:00 +1°C° 0 mm 2 mps 715 mmHg 83%
05:00 +1°C° 0 mm 2 mps 715 mmHg 84%
06:00 +1°C° 0 mm 2 mps 715 mmHg 84%
07:00 +1°C° 0 mm 2 mps 715 mmHg 84%
08:00 +1°C° 0 mm 2 mps 715 mmHg 84%
09:00 +2°C° 0 mm 2 mps 715 mmHg 84%
10:00 +3°C° 0 mm 2 mps 715 mmHg 85%
11:00 +5°C° 0 mm 1 mps 715 mmHg 87%
12:00 +5°C° 0 mm 1 mps 715 mmHg 89%
13:00 +6°C° 0 mm 1 mps 716 mmHg 92%
14:00 +6°C° 0 mm 1 mps 716 mmHg 92%
15:00 +6°C° 0 mm 1 mps 715 mmHg 93%
16:00 +6°C° 0 mm 1 mps 715 mmHg 93%
17:00 +5°C° 0 mm 1 mps 716 mmHg 91%
18:00 +4°C° 0 mm 1 mps 716 mmHg 88%
19:00 +3°C° 0 mm 1 mps 716 mmHg 86%
20:00 +3°C° 0 mm 1 mps 716 mmHg 85%
21:00 +4°C° 0 mm 1 mps 715 mmHg 85%
22:00 +4°C° 0 mm 1 mps 715 mmHg 85%
23:00 +3°C° 0 mm 1 mps 715 mmHg 84%

22 January, Friday

Time Temperature Precipitation Wind Pressure Humidity
00:00 +2°C° 0 mm 2 mps 714 mmHg 84%
01:00 +2°C° 0 mm 2 mps 713 mmHg 83%
02:00 +2°C° 0 mm 2 mps 713 mmHg 84%
03:00 +3°C° 0 mm 1 mps 712 mmHg 84%
04:00 +3°C° 0 mm 1 mps 712 mmHg 85%
05:00 +3°C° 0 mm 1 mps 711 mmHg 86%
06:00 +3°C° 0 mm 1 mps 711 mmHg 88%
07:00 +3°C° 0 mm 1 mps 711 mmHg 89%
08:00 +4°C° 0.2 mm 1 mps 711 mmHg 91%
09:00 +4°C° 0.2 mm 1 mps 711 mmHg 93%
10:00 +5°C° 0.2 mm 1 mps 711 mmHg 95%
11:00 +5°C° 0.6 mm 1 mps 711 mmHg 96%
12:00 +5°C° 0.6 mm 1 mps 711 mmHg 97%
13:00 +4°C° 0.6 mm 2 mps 711 mmHg 98%
14:00 +5°C° 0.2 mm 1 mps 711 mmHg 98%
15:00 +5°C° 0.2 mm 1 mps 711 mmHg 98%
16:00 +5°C° 0.2 mm 1 mps 711 mmHg 98%
17:00 +5°C° 0.3 mm 1 mps 711 mmHg 98%
18:00 +3°C° 0.3 mm 0 mps 711 mmHg 98%
19:00 +3°C° 0.3 mm 0 mps 711 mmHg 98%
20:00 +3°C° 0.2 mm 0 mps 711 mmHg 98%
21:00 +3°C° 0.2 mm 0 mps 712 mmHg 98%
22:00 +2°C° 0.2 mm 0 mps 712 mmHg 98%
23:00 +2°C° 0.5 mm 0 mps 712 mmHg 98%
Show more